Time,TemperatureF,DewpointF,PressureIn,WindDirection,WindDirectionDegrees,WindSpeedMPH,WindSpeedGustMPH,Humidity,HourlyPrecipIn,Conditions,Clouds,dailyrainin,SoftwareType,DateUTC
2013-09-16 00:14:00,65.3,55.6,29.91,NE,45,6.3,-999.0,71,-99.99,,,0.00,Acu-Link.com,2013-09-16 04:14:00,
2013-09-16 00:29:00,64.9,55.7,29.90,South,180,3.7,-999.0,72,-99.99,,,0.00,Acu-Link.com,2013-09-16 04:29:00,
2013-09-16 00:44:00,64.9,56.4,29.90,West,270,6.8,-999.0,74,-99.99,,,0.00,Acu-Link.com,2013-09-16 04:44:00,
2013-09-16 00:59:00,64.8,56.3,29.89,West,270,6.3,-999.0,74,-99.99,,,0.00,Acu-Link.com,2013-09-16 04:59:00,
2013-09-16 01:15:00,64.6,56.5,29.89,West,270,6.3,-999.0,75,-99.99,,,0.00,Acu-Link.com,2013-09-16 05:15:00,
2013-09-16 01:30:00,64.4,56.7,29.89,West,270,5.8,-999.0,76,-99.99,,,0.00,Acu-Link.com,2013-09-16 05:30:00,
2013-09-16 01:45:00,64.2,56.8,29.89,SW,225,4.2,-999.0,77,-99.99,,,0.00,Acu-Link.com,2013-09-16 05:45:00,
2013-09-16 02:00:00,64.0,56.6,29.88,West,270,4.7,-999.0,77,-99.99,,,0.00,Acu-Link.com,2013-09-16 06:00:00,
2013-09-16 02:15:00,63.9,56.9,29.88,SSW,202,4.7,-999.0,78,-99.99,,,0.00,Acu-Link.com,2013-09-16 06:15:00,
2013-09-16 02:30:00,63.5,56.9,29.88,West,270,2.2,-999.0,79,-99.99,,,0.00,Acu-Link.com,2013-09-16 06:30:00,
2013-09-16 02:45:00,63.3,57.0,29.87,West,270,2.2,-999.0,80,-99.99,,,0.00,Acu-Link.com,2013-09-16 06:45:00,
2013-09-16 03:01:00,63.1,57.2,29.87,West,270,4.2,-999.0,81,-99.99,,,0.00,Acu-Link.com,2013-09-16 07:01:00,
2013-09-16 03:16:00,63.1,57.5,29.87,West,270,4.2,-999.0,82,-99.99,,,0.00,Acu-Link.com,2013-09-16 07:16:00,
2013-09-16 03:31:00,63.3,58.0,29.87,NNE,22,5.3,-999.0,83,-99.99,,,0.00,Acu-Link.com,2013-09-16 07:31:00,
2013-09-16 03:47:00,63.5,58.6,29.86,West,270,4.2,-999.0,84,-99.99,,,0.00,Acu-Link.com,2013-09-16 07:47:00,
2013-09-16 04:02:00,63.5,57.9,29.86,WSW,247,3.2,-999.0,82,-99.99,,,0.00,Acu-Link.com,2013-09-16 08:02:00,
2013-09-16 04:18:00,63.5,57.9,29.87,WSW,247,4.2,-999.0,82,-99.99,,,0.00,Acu-Link.com,2013-09-16 08:18:00,
2013-09-16 04:33:00,63.5,57.2,29.86,West,270,4.7,-999.0,80,-99.99,,,0.00,Acu-Link.com,2013-09-16 08:33:00,
2013-09-16 04:49:00,63.5,57.6,29.86,WSW,247,6.3,-999.0,81,-99.99,,,0.00,Acu-Link.com,2013-09-16 08:49:00,
2013-09-16 05:04:00,63.3,57.4,29.86,NNE,22,1.7,-999.0,81,-99.99,,,0.00,Acu-Link.com,2013-09-16 09:04:00,
2013-09-16 05:19:00,63.3,57.7,29.85,West,270,6.3,-999.0,82,-99.99,,,0.00,Acu-Link.com,2013-09-16 09:19:00,
2013-09-16 05:34:00,63.1,57.5,29.84,West,270,6.3,-999.0,82,-99.99,,,0.00,Acu-Link.com,2013-09-16 09:34:00,
2013-09-16 05:49:00,63.1,57.8,29.85,West,270,5.8,-999.0,83,-99.99,,,0.00,Acu-Link.com,2013-09-16 09:49:00,
2013-09-16 06:04:00,62.8,58.2,29.86,West,270,6.3,-999.0,85,-99.99,,,0.00,Acu-Link.com,2013-09-16 10:04:00,
2013-09-16 06:20:00,62.1,58.8,29.86,WSW,247,4.2,-999.0,89,-99.99,,,0.00,Acu-Link.com,2013-09-16 10:20:00,
2013-09-16 06:35:00,61.7,58.4,29.86,West,270,2.2,-999.0,89,-99.99,,,0.00,Acu-Link.com,2013-09-16 10:35:00,
2013-09-16 06:50:00,61.5,58.2,29.86,West,270,4.2,-999.0,89,-99.99,,,0.00,Acu-Link.com,2013-09-16 10:50:00,
2013-09-16 07:05:00,61.5,58.2,29.86,West,270,3.7,-999.0,89,-99.99,,,0.00,Acu-Link.com,2013-09-16 11:05:00,
2013-09-16 07:21:00,62.1,58.5,29.87,SW,225,1.7,-999.0,88,-99.99,,,0.00,Acu-Link.com,2013-09-16 11:21:00,
2013-09-16 07:36:00,62.2,58.3,29.88,NE,45,4.2,-999.0,87,-99.99,,,0.00,Acu-Link.com,2013-09-16 11:36:00,
2013-09-16 07:51:00,62.2,58.0,29.88,West,270,2.7,-999.0,86,-99.99,,,0.00,Acu-Link.com,2013-09-16 11:51:00,
2013-09-16 08:06:00,62.1,58.2,29.87,West,270,3.2,-999.0,87,-99.99,,,0.00,Acu-Link.com,2013-09-16 12:06:00,
2013-09-16 08:21:00,62.2,59.2,29.87,West,270,1.7,-999.0,90,-99.99,,,0.00,Acu-Link.com,2013-09-16 12:21:00,
2013-09-16 08:36:00,61.3,58.6,29.88,West,270,1.1,-999.0,91,-99.99,,,0.01,Acu-Link.com,2013-09-16 12:36:00,
2013-09-16 08:51:00,61.3,58.6,29.88,SW,225,2.7,-999.0,91,-99.99,,,0.01,Acu-Link.com,2013-09-16 12:51:00,
2013-09-16 09:07:00,61.3,58.3,29.89,SSE,157,5.3,-999.0,90,-99.99,,,0.01,Acu-Link.com,2013-09-16 13:07:00,
2013-09-16 09:22:00,61.2,58.2,29.91,SE,135,1.1,-999.0,90,-99.99,,,0.01,Acu-Link.com,2013-09-16 13:22:00,
2013-09-16 09:37:00,61.9,58.3,29.91,East,90,0.0,-999.0,88,-99.99,,,0.01,Acu-Link.com,2013-09-16 13:37:00,
2013-09-16 09:52:00,61.9,58.3,29.91,WSW,247,1.1,-999.0,88,-99.99,,,0.01,Acu-Link.com,2013-09-16 13:52:00,
2013-09-16 10:07:00,62.1,58.2,29.91,West,270,0.0,-999.0,87,-99.99,,,0.01,Acu-Link.com,2013-09-16 14:07:00,
2013-09-16 10:22:00,62.4,58.2,29.90,SSE,157,0.0,-999.0,86,-99.99,,,0.01,Acu-Link.com,2013-09-16 14:22:00,
2013-09-16 10:38:00,63.0,58.7,29.91,East,90,1.7,-999.0,86,-99.99,,,0.01,Acu-Link.com,2013-09-16 14:38:00,
2013-09-16 10:53:00,63.3,57.0,29.91,NW,315,0.0,-999.0,80,-99.99,,,0.01,Acu-Link.com,2013-09-16 14:53:00,
2013-09-16 11:08:00,63.5,55.8,29.90,SSE,157,1.1,-999.0,76,-99.99,,,0.01,Acu-Link.com,2013-09-16 15:08:00,
2013-09-16 11:24:00,63.5,56.2,29.91,NNE,22,0.0,-999.0,77,-99.99,,,0.01,Acu-Link.com,2013-09-16 15:24:00,
2013-09-16 11:39:00,63.7,56.0,29.91,ENE,67,0.0,-999.0,76,-99.99,,,0.01,Acu-Link.com,2013-09-16 15:39:00,
2013-09-16 11:54:00,64.4,56.7,29.90,North,0,0.0,-999.0,76,-99.99,,,0.01,Acu-Link.com,2013-09-16 15:54:00,
2013-09-16 12:09:00,64.8,56.7,29.90,West,270,0.0,-999.0,75,-99.99,,,0.01,Acu-Link.com,2013-09-16 16:09:00,
2013-09-16 12:25:00,65.5,56.6,29.89,NE,45,0.0,-999.0,73,-99.99,,,0.01,Acu-Link.com,2013-09-16 16:25:00,
2013-09-16 12:40:00,65.8,56.1,29.89,WNW,292,1.1,-999.0,71,-99.99,,,0.01,Acu-Link.com,2013-09-16 16:40:00,
2013-09-16 12:55:00,67.5,56.1,29.89,SW,225,2.7,-999.0,67,-99.99,,,0.01,Acu-Link.com,2013-09-16 16:55:00,
2013-09-16 13:10:00,67.3,55.5,29.89,SW,225,0.0,-999.0,66,-99.99,,,0.01,Acu-Link.com,2013-09-16 17:10:00,
2013-09-16 13:26:00,68.9,55.3,29.88,ESE,112,2.2,-999.0,62,-99.99,,,0.01,Acu-Link.com,2013-09-16 17:26:00,
2013-09-16 13:41:00,69.6,54.6,29.88,East,90,1.1,-999.0,59,-99.99,,,0.01,Acu-Link.com,2013-09-16 17:41:00,
2013-09-16 13:56:00,70.0,54.5,29.88,West,270,0.0,-999.0,58,-99.99,,,0.01,Acu-Link.com,2013-09-16 17:56:00,
2013-09-16 14:12:00,70.7,56.1,29.88,ESE,112,0.0,-999.0,60,-99.99,,,0.01,Acu-Link.com,2013-09-16 18:12:00,
2013-09-16 14:27:00,70.5,55.0,29.87,ESE,112,0.0,-999.0,58,-99.99,,,0.01,Acu-Link.com,2013-09-16 18:27:00,
2013-09-16 14:42:00,70.7,54.2,29.88,ESE,112,1.7,-999.0,56,-99.99,,,0.01,Acu-Link.com,2013-09-16 18:42:00,
2013-09-16 14:57:00,72.1,53.5,29.88,WSW,247,3.2,-999.0,52,-99.99,,,0.01,Acu-Link.com,2013-09-16 18:57:00,
2013-09-16 15:13:00,72.9,54.8,29.88,ESE,112,0.0,-999.0,53,-99.99,,,0.01,Acu-Link.com,2013-09-16 19:13:00,
2013-09-16 15:28:00,70.7,54.2,29.88,East,90,2.2,-999.0,56,-99.99,,,0.01,Acu-Link.com,2013-09-16 19:28:00,
2013-09-16 15:43:00,70.7,54.2,29.88,West,270,1.7,-999.0,56,-99.99,,,0.01,Acu-Link.com,2013-09-16 19:43:00,
2013-09-16 15:58:00,70.7,54.7,29.88,East,90,0.0,-999.0,57,-99.99,,,0.01,Acu-Link.com,2013-09-16 19:58:00,
2013-09-16 16:14:00,70.5,54.5,29.88,ESE,112,1.1,-999.0,57,-99.99,,,0.01,Acu-Link.com,2013-09-16 20:14:00,
2013-09-16 16:29:00,70.5,54.5,29.88,ESE,112,2.2,-999.0,57,-99.99,,,0.01,Acu-Link.com,2013-09-16 20:29:00,
2013-09-16 16:44:00,70.0,55.0,29.89,ENE,67,1.7,-999.0,59,-99.99,,,0.01,Acu-Link.com,2013-09-16 20:44:00,
2013-09-16 16:59:00,69.6,54.2,29.89,SSE,157,0.0,-999.0,58,-99.99,,,0.01,Acu-Link.com,2013-09-16 20:59:00,
2013-09-16 17:14:00,69.4,54.0,29.89,West,270,1.1,-999.0,58,-99.99,,,0.01,Acu-Link.com,2013-09-16 21:14:00,
2013-09-16 17:30:00,69.4,54.4,29.90,East,90,2.2,-999.0,59,-99.99,,,0.01,Acu-Link.com,2013-09-16 21:30:00,
2013-09-16 17:45:00,69.1,54.2,29.90,East,90,0.0,-999.0,59,-99.99,,,0.01,Acu-Link.com,2013-09-16 21:45:00,
2013-09-16 18:00:00,69.1,55.1,29.91,ENE,67,0.0,-999.0,61,-99.99,,,0.01,Acu-Link.com,2013-09-16 22:00:00,
2013-09-16 18:15:00,68.4,55.7,29.92,West,270,4.7,-999.0,64,-99.99,,,0.01,Acu-Link.com,2013-09-16 22:15:00,
2013-09-16 18:31:00,68.4,55.7,29.92,East,90,1.7,-999.0,64,-99.99,,,0.01,Acu-Link.com,2013-09-16 22:31:00,
2013-09-16 18:46:00,68.0,55.4,29.93,West,270,1.1,-999.0,64,-99.99,,,0.01,Acu-Link.com,2013-09-16 22:46:00,
2013-09-16 19:01:00,67.6,55.0,29.93,ESE,112,1.7,-999.0,64,-99.99,,,0.01,Acu-Link.com,2013-09-16 23:01:00,
2013-09-16 19:16:00,67.5,54.9,29.93,SSE,157,0.0,-999.0,64,-99.99,,,0.01,Acu-Link.com,2013-09-16 23:16:00,
2013-09-16 19:32:00,67.1,54.5,29.94,WSW,247,0.0,-999.0,64,-99.99,,,0.01,Acu-Link.com,2013-09-16 23:32:00,
2013-09-16 19:47:00,66.7,54.1,29.94,WSW,247,1.7,-999.0,64,-99.99,,,0.01,Acu-Link.com,2013-09-16 23:47:00,
2013-09-16 20:02:00,66.4,54.3,29.95,NW,315,0.0,-999.0,65,-99.99,,,0.01,Acu-Link.com,2013-09-17 00:02:00,
2013-09-16 20:17:00,66.0,54.3,29.96,NNW,337,0.0,-999.0,66,-99.99,,,0.01,Acu-Link.com,2013-09-17 00:17:00,
2013-09-16 20:33:00,65.3,54.1,29.97,WSW,247,3.2,-999.0,67,-99.99,,,0.01,Acu-Link.com,2013-09-17 00:33:00,
2013-09-16 20:48:00,64.9,54.5,29.97,ESE,112,3.7,-999.0,69,-99.99,,,0.01,Acu-Link.com,2013-09-17 00:48:00,
2013-09-16 21:03:00,64.8,54.4,29.98,West,270,2.7,-999.0,69,-99.99,,,0.01,Acu-Link.com,2013-09-17 01:03:00,
2013-09-16 21:19:00,64.4,54.4,29.98,SW,225,2.7,-999.0,70,-99.99,,,0.01,Acu-Link.com,2013-09-17 01:19:00,
2013-09-16 21:34:00,64.0,54.4,29.99,SE,135,1.7,-999.0,71,-99.99,,,0.01,Acu-Link.com,2013-09-17 01:34:00,
2013-09-16 21:49:00,63.9,54.3,30.00,West,270,0.0,-999.0,71,-99.99,,,0.01,Acu-Link.com,2013-09-17 01:49:00,
2013-09-16 22:04:00,63.9,55.1,30.01,East,90,4.2,-999.0,73,-99.99,,,0.01,Acu-Link.com,2013-09-17 02:04:00,
2013-09-16 22:19:00,62.8,53.6,30.02,SSW,202,3.7,-999.0,72,-99.99,,,0.01,Acu-Link.com,2013-09-17 02:19:00,
2013-09-16 22:35:00,61.9,52.4,30.03,East,90,2.2,-999.0,71,-99.99,,,0.01,Acu-Link.com,2013-09-17 02:35:00,
2013-09-16 22:50:00,61.2,51.7,30.03,East,90,3.2,-999.0,71,-99.99,,,0.01,Acu-Link.com,2013-09-17 02:50:00,
2013-09-16 23:05:00,60.8,51.3,30.04,North,0,2.2,-999.0,71,-99.99,,,0.01,Acu-Link.com,2013-09-17 03:05:00,
2013-09-16 23:21:00,60.3,51.2,30.05,ESE,112,2.7,-999.0,72,-99.99,,,0.01,Acu-Link.com,2013-09-17 03:21:00,
2013-09-16 23:36:00,59.7,50.7,30.06,ESE,112,2.7,-999.0,72,-99.99,,,0.01,Acu-Link.com,2013-09-17 03:36:00,
2013-09-16 23:51:00,58.8,49.8,30.06,West,270,4.7,-999.0,72,-99.99,,,0.01,Acu-Link.com,2013-09-17 03:51:00,